Regional Weather Roundup
Issued by NWS Huntsville, AL

Home | Current Version | Previous Version | Text Only | Print | Product List | Glossary On
Versions: 1 2 3 4 5 6 7 8 9 10 11 12 13 14 15 16 17 18 19 20 21 22 23 24 25 26
067
ASUS44 KHUN 221910
RWRHUN

WEATHER ROUNDUP FOR THE TENNESSEE VALLEY
NATIONAL WEATHER SERVICE HUNTSVILLE AL
200 PM CDT FRI MAY 22 2015

ALZ001>004-222000-
NORTHWEST ALABAMA

CITY           SKY/WX    TMP DP  RH WIND       PRES   REMARKS
COURTLAND HCN    N/A     68 N/A N/A NE7         N/A
BANKHEAD NF      N/A     73  50  43 SE3         N/A
RUSSELLVILLE     N/A     68 N/A N/A MISG        N/A
SHOALS AIRPORT SUNNY     71  46  40 E6        30.27S
SHOALS TVA RES   N/A     70 N/A N/A MISG        N/A
$$

ALZ005>007-016-222000-
NORTH CENTRAL ALABAMA

CITY           SKY/WX    TMP DP  RH WIND       PRES   REMARKS
CULLMAN AG STN   N/A     70 N/A N/A CALM        N/A
DECATUR AP     NOT AVBL
HUNTSVILLE AP  SUNNY     75  47  36 N8        30.24F
MERIDIANVILLE  SUNNY     70  41  35 N5        30.25F
REDSTONE ARSN  SUNNY     72  50  46 NE9       30.23F
VINEMONT AP    FAIR      69  50  50 CALM      30.26S
$$

ALZ008>010-222000-
NORTHEAST ALABAMA

CITY           SKY/WX    TMP DP  RH WIND       PRES   REMARKS
ALBERTVILLE    SUNNY     72  55  56 NE7       30.23S
FORT PAYNE     SUNNY     70  43  37 N7        30.22F
SCOTTSBORO HCN   N/A     70 N/A N/A MISG        N/A
VALLEY HEAD      N/A     70 N/A N/A MISG        N/A
$$

TNZ076-096-097-222000-
SOUTHEASTERN MIDDLE TENNESSEE

CITY           SKY/WX    TMP DP  RH WIND       PRES   REMARKS
TULLAHOMA      SUNNY     68  41  37 NE3       30.27S
WINCHESTER     SUNNY     70  45  40 VRB5      30.25S
$$

...SURROUNDING SITES...

CITY           SKY/WX    TMP DP  RH WIND       PRES   REMARKS
ATLANTA        MOSUNNY   74  51  44 NE7       30.20F
ANNISTON       SUNNY     75  51  43 VRB3      30.20F
BIRMINGHAM     MOSUNNY   74  48  39 NW9       30.23F
CHATTANOOGA    MOSUNNY   71  45  39 N13       30.24F
CORINTH        FAIR      70  48  46 VRB6      30.26F
DALTON         SUNNY     70  50  49 NW3       30.22F
GADSDEN        SUNNY     73  46  38 E6        30.21S
GOLDEN TRNGL   SUNNY     70  50  49 N7        30.23F
HALEYVILLE     FAIR      71  49  45 CALM      30.28S
JACKSON TN     SUNNY     72  47  40 VRB3      30.27F
LEWISBURG      FAIR      70  40  33 N8        30.26S
MEMPHIS        MOSUNNY   73  45  36 CALM      30.27F
NASHVILLE      MOSUNNY   72  43  35 NE3       30.28S
OXFORD MS      FAIR      70  46  43 NE5       30.26F
ROME           SUNNY     73  50  44 N6        30.21F
SAVANNAH       SUNNY     72  32  23 CALM      30.27S
TUPELO         SUNNY     72  48  42 VRB6      30.25F
TUSCALOOSA     SUNNY     75  49  39 N10       30.22F
$$

...GULF COAST WEATHER...

CITY           SKY/WX    TMP DP  RH WIND       PRES   REMARKS
GULFPORT       SUNNY     80  61  52 CALM      30.15F
PASCAGOULA     MOSUNNY   79  61  53 SE6       30.16F
MOBILE         MOSUNNY   80  58  46 N8        30.17F
GULF SHORES    CLOUDY    81  60  47 NW5       30.15S
PENSACOLA      PTSUNNY   84  57  39 NE7       30.14F
DESTIN         SUNNY     85  54  34 N7        30.14F
PANAMA CITY    SUNNY     86  62  44 VRB2      30.12F
APPALACHICOLA  SUNNY     87  66  49 S8        30.12F
$$




USA.gov is the U.S. government's official web portal to all federal, state and local government web resources and services.